• In Romania
  • List of Countries
  • For 7 days
  • Water Temperature
  • Satellite Maps
  • Weather Map
  • Weather Widgets
  • user-avatar
    Login

    Hourly Weather Salta

    Today, 18 January, Wednesday

    Time Temperature Precipitation Wind Pressure Humidity
    00:00 +22°C° 0 mm 1 mps 650 mmHg 69%
    01:00 +22°C° 0 mm 1 mps 650 mmHg 70%
    02:00 +21°C° 0 mm 1 mps 650 mmHg 70%
    03:00 +21°C° 0 mm 1 mps 650 mmHg 71%
    04:00 +21°C° 0 mm 1 mps 650 mmHg 72%
    05:00 +19°C° 0 mm 0 mps 650 mmHg 73%
    06:00 +22°C° 0 mm 1 mps 651 mmHg 66%
    07:00 +24°C° 0 mm 1 mps 652 mmHg 60%
    08:00 +26°C° 0 mm 1 mps 653 mmHg 52%
    09:00 +27°C° 0 mm 2 mps 653 mmHg 49%
    10:00 +28°C° 0 mm 2 mps 653 mmHg 47%
    11:00 +29°C° 0 mm 3 mps 653 mmHg 44%
    12:00 +30°C° 0.1 mm 3 mps 653 mmHg 43%
    13:00 +31°C° 0.1 mm 3 mps 653 mmHg 42%
    14:00 +31°C° 0.1 mm 3 mps 653 mmHg 41%
    15:00 +31°C° 0.1 mm 3 mps 652 mmHg 43%
    16:00 +30°C° 0.1 mm 3 mps 652 mmHg 45%
    17:00 +30°C° 0.1 mm 3 mps 652 mmHg 47%
    18:00 +28°C° 0.1 mm 2 mps 652 mmHg 53%
    19:00 +27°C° 0.1 mm 2 mps 652 mmHg 58%
    20:00 +25°C° 0.1 mm 1 mps 652 mmHg 63%
    21:00 +24°C° 0 mm 1 mps 653 mmHg 65%
    22:00 +24°C° 0 mm 1 mps 653 mmHg 67%
    23:00 +23°C° 0 mm 1 mps 654 mmHg 69%

    Tomorrow, 19 January, Thursday

    Time Temperature Precipitation Wind Pressure Humidity
    00:00 +23°C° 0 mm 1 mps 653 mmHg 70%
    01:00 +22°C° 0 mm 1 mps 653 mmHg 71%
    02:00 +22°C° 0 mm 1 mps 653 mmHg 73%
    03:00 +22°C° 0 mm 1 mps 653 mmHg 74%
    04:00 +21°C° 0 mm 1 mps 652 mmHg 75%
    05:00 +21°C° 0 mm 1 mps 652 mmHg 76%
    06:00 +22°C° 0 mm 1 mps 653 mmHg 70%
    07:00 +24°C° 0 mm 1 mps 653 mmHg 63%
    08:00 +25°C° 0 mm 1 mps 654 mmHg 57%
    09:00 +27°C° 0 mm 2 mps 654 mmHg 50%
    10:00 +29°C° 0 mm 3 mps 655 mmHg 43%
    11:00 +30°C° 0 mm 3 mps 655 mmHg 36%
    12:00 +31°C° 0 mm 3 mps 654 mmHg 34%
    13:00 +33°C° 0 mm 4 mps 654 mmHg 31%
    14:00 +34°C° 0 mm 4 mps 654 mmHg 29%
    15:00 +34°C° 0 mm 4 mps 653 mmHg 30%
    16:00 +34°C° 0 mm 4 mps 653 mmHg 31%
    17:00 +33°C° 0 mm 4 mps 653 mmHg 31%
    18:00 +30°C° 0 mm 3 mps 653 mmHg 38%
    19:00 +27°C° 0 mm 2 mps 652 mmHg 45%
    20:00 +25°C° 0 mm 1 mps 652 mmHg 52%
    21:00 +24°C° 0 mm 1 mps 653 mmHg 53%
    22:00 +24°C° 0 mm 1 mps 653 mmHg 54%
    23:00 +23°C° 0 mm 1 mps 654 mmHg 55%

    Day after tomorrow, 20 January, Friday

    Time Temperature Precipitation Wind Pressure Humidity
    00:00 +23°C° 0 mm 1 mps 654 mmHg 56%
    01:00 +22°C° 0 mm 1 mps 654 mmHg 56%
    02:00 +22°C° 0 mm 1 mps 653 mmHg 57%
    03:00 +22°C° 0 mm 1 mps 653 mmHg 58%
    04:00 +21°C° 0 mm 1 mps 653 mmHg 59%
    05:00 +21°C° 0 mm 1 mps 653 mmHg 59%
    06:00 +23°C° 0 mm 1 mps 654 mmHg 53%
    07:00 +25°C° 0 mm 1 mps 655 mmHg 47%
    08:00 +27°C° 0 mm 1 mps 656 mmHg 41%
    09:00 +28°C° 0 mm 1 mps 656 mmHg 38%
    10:00 +30°C° 0 mm 2 mps 657 mmHg 34%
    11:00 +31°C° 0 mm 2 mps 657 mmHg 30%
    12:00 +32°C° 0 mm 2 mps 656 mmHg 28%
    13:00 +34°C° 0 mm 3 mps 656 mmHg 27%
    14:00 +35°C° 0 mm 3 mps 656 mmHg 25%
    15:00 +34°C° 0 mm 3 mps 655 mmHg 26%
    16:00 +34°C° 0 mm 3 mps 655 mmHg 26%
    17:00 +34°C° 0 mm 3 mps 654 mmHg 27%
    18:00 +30°C° 0 mm 2 mps 654 mmHg 33%
    19:00 +28°C° 0 mm 2 mps 654 mmHg 40%
    20:00 +25°C° 0 mm 1 mps 654 mmHg 46%
    21:00 +24°C° 0 mm 1 mps 654 mmHg 47%
    22:00 +24°C° 0 mm 1 mps 655 mmHg 49%
    23:00 +24°C° 0 mm 1 mps 655 mmHg 50%

    21 January, Saturday

    Time Temperature Precipitation Wind Pressure Humidity
    00:00 +23°C° 0 mm 1 mps 655 mmHg 51%
    01:00 +22°C° 0 mm 1 mps 654 mmHg 52%
    02:00 +22°C° 0 mm 1 mps 654 mmHg 54%
    03:00 +21°C° 0 mm 1 mps 653 mmHg 54%
    04:00 +21°C° 0 mm 1 mps 653 mmHg 55%
    05:00 +20°C° 0 mm 1 mps 653 mmHg 56%
    06:00 +23°C° 0 mm 1 mps 654 mmHg 50%
    07:00 +25°C° 0 mm 1 mps 655 mmHg 44%
    08:00 +27°C° 0 mm 1 mps 656 mmHg 37%
    09:00 +29°C° 0 mm 1 mps 656 mmHg 34%
    10:00 +30°C° 0 mm 2 mps 656 mmHg 30%
    11:00 +32°C° 0 mm 2 mps 656 mmHg 27%
    12:00 +34°C° 0 mm 3 mps 656 mmHg 26%
    13:00 +34°C° 0 mm 3 mps 655 mmHg 25%
    14:00 +35°C° 0 mm 3 mps 655 mmHg 23%
    15:00 +35°C° 0 mm 3 mps 654 mmHg 24%
    16:00 +34°C° 0 mm 4 mps 653 mmHg 25%
    17:00 +34°C° 0 mm 4 mps 653 mmHg 26%
    18:00 +30°C° 0 mm 3 mps 653 mmHg 33%
    19:00 +28°C° 0 mm 2 mps 652 mmHg 40%
    20:00 +25°C° 0 mm 1 mps 652 mmHg 47%
    21:00 +25°C° 0 mm 1 mps 653 mmHg 48%
    22:00 +24°C° 0 mm 1 mps 653 mmHg 49%
    23:00 +24°C° 0 mm 2 mps 653 mmHg 49%

    22 January, Sunday

    Time Temperature Precipitation Wind Pressure Humidity
    00:00 +23°C° 0 mm 1 mps 653 mmHg 50%
    01:00 +23°C° 0 mm 1 mps 652 mmHg 52%
    02:00 +22°C° 0 mm 1 mps 652 mmHg 53%
    03:00 +22°C° 0 mm 1 mps 651 mmHg 54%
    04:00 +21°C° 0 mm 1 mps 651 mmHg 55%
    05:00 +21°C° 0 mm 1 mps 651 mmHg 56%
    06:00 +23°C° 0 mm 1 mps 652 mmHg 49%
    07:00 +25°C° 0 mm 1 mps 653 mmHg 43%
    08:00 +27°C° 0 mm 1 mps 654 mmHg 36%
    09:00 +29°C° 0 mm 1 mps 654 mmHg 34%
    10:00 +30°C° 0 mm 2 mps 654 mmHg 31%
    11:00 +33°C° 0 mm 3 mps 654 mmHg 28%
    12:00 +33°C° 0 mm 3 mps 653 mmHg 27%
    13:00 +34°C° 0 mm 3 mps 653 mmHg 26%
    14:00 +35°C° 0 mm 4 mps 652 mmHg 25%
    15:00 +34°C° 0 mm 4 mps 652 mmHg 27%
    16:00 +33°C° 0 mm 4 mps 652 mmHg 28%
    17:00 +33°C° 0 mm 4 mps 651 mmHg 30%
    18:00 +30°C° 0 mm 3 mps 652 mmHg 36%
    19:00 +28°C° 0 mm 2 mps 652 mmHg 42%
    20:00 +25°C° 0 mm 1 mps 652 mmHg 47%
    21:00 +25°C° 0 mm 1 mps 652 mmHg 49%
    22:00 +25°C° 0 mm 1 mps 653 mmHg 50%
    23:00 +24°C° 0 mm 1 mps 653 mmHg 52%

    23 January, Monday

    Time Temperature Precipitation Wind Pressure Humidity
    00:00 +24°C° 0 mm 1 mps 653 mmHg 53%
    01:00 +23°C° 0 mm 1 mps 652 mmHg 55%
    02:00 +23°C° 0 mm 1 mps 652 mmHg 56%
    03:00 +23°C° 0 mm 1 mps 651 mmHg 57%
    04:00 +22°C° 0 mm 1 mps 651 mmHg 58%
    05:00 +22°C° 0 mm 1 mps 651 mmHg 59%
    06:00 +23°C° 0 mm 1 mps 652 mmHg 56%
    07:00 +24°C° 0 mm 1 mps 652 mmHg 52%
    08:00 +25°C° 0 mm 1 mps 653 mmHg 49%
    09:00 +26°C° 0.3 mm 1 mps 653 mmHg 48%
    10:00 +27°C° 0.3 mm 1 mps 653 mmHg 46%
    11:00 +28°C° 0.3 mm 2 mps 653 mmHg 45%
    12:00 +28°C° 0.3 mm 2 mps 653 mmHg 44%
    13:00 +29°C° 0.3 mm 2 mps 653 mmHg 43%
    14:00 +29°C° 0.3 mm 3 mps 652 mmHg 41%
    15:00 +29°C° 0.2 mm 3 mps 652 mmHg 42%
    16:00 +29°C° 0.2 mm 3 mps 652 mmHg 43%
    17:00 +29°C° 0.2 mm 3 mps 652 mmHg 44%
    18:00 +27°C° 0.7 mm 3 mps 652 mmHg 52%
    19:00 +25°C° 0.7 mm 2 mps 652 mmHg 59%
    20:00 +23°C° 0.7 mm 2 mps 652 mmHg 67%
    21:00 +21°C° 0.5 mm 2 mps 652 mmHg 70%
    22:00 +21°C° 0.5 mm 2 mps 652 mmHg 73%
    23:00 +21°C° 0.5 mm 1 mps 652 mmHg 75%
    Show more